Orbital Elements at Epoch 2453303.5 (2004-Oct-25.0) TDB
Reference: JPL 13 (heliocentric ecliptic J2000)
Element | Value | Uncertainty (1-sigma) | Units |
e | .4369574066912527 | 5.841e-06 | |
a | 3.342402013895573 | 6.0577e-06 | au |
q | 1.881914697784143 | 2.292e-05 | au |
i | 14.73061938425923 | 0.00012034 | deg |
node | 43.51389700555364 | 0.0003329 | deg |
peri | 9.292237809958742 | 0.00080787 | deg |
M | 65.14424991242431 | 0.00039494 | deg |
tp | 2452899.612845830829 (2003-Sep-17.11284583) | 0.0023857 | TDB |
period | 2231.960237417225 6.11 | 0.0060678 1.661e-05 | d yr |
n | .1612931959830002 | 4.3849e-07 | deg/d |
Q | 4.802889330007003 | 8.7047e-06 | au |
|
| | Orbit Determination Parameters
Additional Information
|